Location: Perryvale
(54.4667°N, 113.3833°W)
Time: 00:07:17
(UTC+00:00)

Vanguard 1 - Pass Details

Date: 28 May 2024
Orbit: 652 x 3825 km, 34.2° (Epoch: 13 June)

Event Time Altitude Azimuth Distance (km) Brightness Sun altitude
Rises 03:02:48 0° 219° (SW) 4,012 13.3 5.0°
Reaches altitude 10° 03:05:50 10° 204° (SSW) 3,407 12.8 4.6°
Maximum altitude 03:12:24 23° 156° (SSE) 3,276 12.3 3.8°
Drops below altitude 10° 03:22:08 10° 113° (ESE) 5,266 13.2 2.7°
Sets 03:28:30 0° 102° (ESE) 6,868 13.8 1.9°
